Volver al catálogo

LYNK TOWER 4

ActivoComunicacionesSSO
NORAD 55034·PAYLOAD·🇺🇸 United States

Lanzado Jan 3, 2023 desde Cape Canaveral Space Force Station

Loading…

Próximos Pases (próximas 24 horas)

TLE

ActualizadoSource: Space-Track

Época: Sep 14, 2026, 10:01 UTC

1 55034U 23001AB  26257.41739506  .00005757  00000-0  17450-3 0  9994
2 55034  97.3100 315.5147 0008720 148.7888 211.3874 15.34490849205501

Sigue LYNK TOWER 4 en tiempo real con AllMySat

Download on the App Store